NINGXIA-1 5

Last updated on Sat Dec 14 2019 00:02:03 GMT+0000 (Coordinated Universal Time)

1 44783U 19076E 19347.40636250 -.00000130 00000-0 00000+0 0 9993 2 44783 45.0104 0.7575 0010724 49.9592 310.2181 14.01675873 4235

Satellite not in orbit

NINGXIA-1 5